{"data":{"norad_id":64106,"intl_designator":"2025-110L","name":"STARLINK-33970","alt_names":[],"object_type":"PAYLOAD","status":"ACTIVE","operator":null,"country":"US","launch_date":"2025-05-23","launch_site_code":"AFWTR","launch_vehicle":null,"mission":null,"orbit_class":"UNKNOWN","rcs_meters":null,"size_class":null,"mass_kg":null,"dimensions":null,"purposes":["comms"],"wikipedia_slug":null,"has_3d_model":false,"image_url":null,"decayed_at":null,"tle_current":{"epoch":"2026-09-20T07:25:04.880064Z","epoch_age_seconds":160188,"freshness":"FRESH","line1":"1 64106U 25110L   26263.30908426  .00013056  00000+0  39675-3 0  9994","line2":"2 64106  53.1601 198.9444 0001333  89.1303 270.9852 15.34408206 75736","mean_motion":15.34408206,"eccentricity":0.0001333,"inclination_deg":53.1601,"raan_deg":198.9444,"arg_perigee_deg":89.1303,"mean_anomaly_deg":270.9852,"bstar":0.00039675,"rev_number":7573,"period_min":93.847256184447,"perigee_km":461.76696960161,"apogee_km":463.59073110732,"semimajor_km":6840.8158503545,"source":"CELESTRAK","updated_at":"2026-09-21T09:00:35.228513Z"}}}